Observations for Trim Patrick St
| Time | AQI | Temp °C | Hum % | Pres Pa | CO μg/m³ | H₂S μg/m³ | NO μg/m³ | NO₂ μg/m³ | O₃ μg/m³ | SO₂ μg/m³ | PM1 μg/m³ | PM2.5 μg/m³ | PM10 μg/m³ |
|---|---|---|---|---|---|---|---|---|---|---|---|---|---|
| Thursday 27 August 2026 | |||||||||||||
| 07:04 | 2 | 17.7 | 87 | 38,459 | 0.22 | 0 | 0.83 | 12.45 | 34.53 | 0 | 26 | 34.28 | 35.08 |
| 07:03 | 2 | 17.7 | 87 | 38,459 | 0.19 | 0 | 0.94 | 19.29 | 33.09 | 0 | 26 | 35.65 | 37.66 |
| 07:02 | 2 | 17.7 | 87 | 38,459 | 0.2 | 0 | 0.81 | 12.11 | 37.4 | 0 | 24.29 | 32.91 | 33.15 |
| 07:01 | 2 | 17.7 | 87 | 38,459 | 0.19 | 0 | 1.06 | 12.69 | 37.94 | 0 | 23.43 | 32.24 | 33.83 |
| 07:00 | 2 | 17.7 | 87 | 38,458 | 0.19 | 0 | 1.29 | 14.54 | 29.59 | 0 | 26 | 34.26 | 35.05 |
| 06:59 | 2 | 17.7 | 87 | 38,457 | 0.2 | 0.38 | 1.49 | 24.08 | 30.84 | 0 | 24.29 | 31.53 | 32.51 |
| 06:58 | 2 | 17.7 | 87 | 38,457 | 0.2 | 0 | 1.51 | 14.3 | 27.37 | 0 | 24.29 | 32.91 | 33.15 |
| 06:57 | 2 | 17.7 | 87 | 38,455 | 0.2 | 0 | 2.24 | 24.36 | 32.25 | 0 | 23.43 | 32.21 | 35.43 |
| 06:56 | 2 | 17.7 | 87 | 38,454 | 0.2 | 0 | 1.57 | 12.37 | 39.22 | 0 | 24.29 | 33.59 | 35.73 |
| 06:53 | 2 | 17.7 | 87 | 38,445 | 0.2 | 0 | 1.15 | 14.82 | 30.15 | 0 | 24.29 | 32.19 | 33.72 |
| 06:48 | 2 | 17.6 | 87 | 38,411 | 0.21 | 0 | 1.12 | 12.86 | 35.98 | 0 | 25.14 | 33.53 | 36.21 |
| 06:47 | 2 | 17.6 | 87 | 38,395 | 0.21 | 0 | 1.01 | 12.77 | 36.2 | 0 | 25.14 | 33.53 | 34.29 |
| 06:46 | 2 | 17.6 | 87 | 38,374 | 0.2 | 0 | 1.29 | 19.22 | 28.42 | 0 | 25.14 | 33.55 | 34.97 |
| 06:45 | 2 | 17.6 | 87 | 38,374 | 0.21 | 0 | 1.54 | 18.02 | 27.55 | 0 | 26 | 35.57 | 37.45 |
| 06:44 | 2 | 17.6 | 87 | 38,374 | 0.21 | 0 | 1.83 | 25.08 | 27.37 | 0 | 26 | 33.53 | 34.93 |
| 06:43 | 2 | 17.6 | 87 | 38,374 | 0.21 | 0 | 1.81 | 14.76 | 23.35 | 0 | 24.29 | 32.85 | 34.29 |
| 06:42 | 2 | 17.6 | 87 | 38,374 | 0.21 | 0.25 | 1.74 | 24.53 | 23.29 | 0 | 25.14 | 32.89 | 34.4 |
| 06:41 | 2 | 17.6 | 86 | 38,374 | 0.21 | 1.01 | 1.7 | 25.47 | 36.05 | 0 | 25.14 | 33.62 | 34.51 |
| 06:40 | 2 | 17.6 | 87 | 38,374 | 0.21 | 0 | 1.65 | 14.57 | 27.53 | 0 | 25.14 | 33.5 | 35.5 |
| 06:39 | 2 | 17.6 | 87 | 38,374 | 0.21 | 0 | 1.38 | 17.08 | 24.06 | 0 | 23.43 | 31.45 | 33.58 |